Location: Ammerl�gen
(47.2167°N, 9.6000°E)
Time: 13:34:54
(UTC+00:00)

Cosmos 676 Rocket - Pass Details

Date: 04 August 2021
Orbit: 755 x 783 km, 74.0° (Epoch: 26 September)

Event Time Altitude Azimuth Distance (km) Brightness Sun altitude
Exits shadow 23:37:37 19° 100° (E) 1,803 5.8 -25.8°
Maximum altitude 23:37:55 19° 96° (E) 1,799 5.9 -25.8°
Drops below altitude 10° 23:41:33 10° 53° (NE) 2,346 7.0 -25.7°
Sets 23:44:34 0° 36° (NE) 3,277 8.2 -25.7°
